When you browse on this site, cookies collect data to enhance your experience and personalize the content and advertising you see.
Visit our Privacy Policy to learn more. By continuing to use the site, you agree to this use of cookies and data.
  • In United Kingdom
  • List of Countries
  • For 7 days
  • Water Temperature
  • Weather Map
  • Weather Widgets
  • user-avatar
    Login

    Hourly Weather Drobeta-Turnu Severin

    Today, 25 January, Saturday

    Time Temperature Precipitation Wind Pressure Humidity
    00:00 +2°C° 0 mm 1 mps 762 mmHg 57%
    01:00 +2°C° 0 mm 1 mps 762 mmHg 55%
    02:00 +2°C° 0 mm 1 mps 762 mmHg 54%
    03:00 +1°C° 0 mm 2 mps 761 mmHg 52%
    04:00 +1°C° 0 mm 2 mps 761 mmHg 50%
    05:00 +2°C° 0 mm 2 mps 761 mmHg 49%
    06:00 +2°C° 0 mm 2 mps 761 mmHg 49%
    07:00 +2°C° 0 mm 2 mps 761 mmHg 50%
    08:00 +1°C° 0 mm 3 mps 761 mmHg 53%
    09:00 +3°C° 0 mm 3 mps 761 mmHg 50%
    10:00 +5°C° 0 mm 3 mps 761 mmHg 48%
    11:00 +8°C° 0 mm 3 mps 761 mmHg 45%
    12:00 +9°C° 0 mm 3 mps 761 mmHg 45%
    13:00 +10°C° 0 mm 3 mps 761 mmHg 44%
    14:00 +11°C° 0 mm 3 mps 760 mmHg 44%
    15:00 +10°C° 0 mm 3 mps 760 mmHg 49%
    16:00 +8°C° 0 mm 4 mps 760 mmHg 55%
    17:00 +6°C° 0 mm 4 mps 760 mmHg 61%
    18:00 +7°C° 0 mm 3 mps 760 mmHg 65%
    19:00 +5°C° 0 mm 3 mps 760 mmHg 69%
    20:00 +5°C° 0 mm 2 mps 760 mmHg 73%
    21:00 +5°C° 0 mm 2 mps 760 mmHg 74%
    22:00 +5°C° 0 mm 2 mps 760 mmHg 75%
    23:00 +4°C° 0 mm 2 mps 760 mmHg 76%

    Tomorrow, 26 January, Sunday

    Time Temperature Precipitation Wind Pressure Humidity
    00:00 +5°C° 0 mm 1 mps 760 mmHg 77%
    01:00 +5°C° 0 mm 1 mps 760 mmHg 77%
    02:00 +5°C° 0 mm 1 mps 760 mmHg 78%
    03:00 +5°C° 0 mm 1 mps 760 mmHg 79%
    04:00 +5°C° 0 mm 1 mps 760 mmHg 80%
    05:00 +5°C° 0 mm 1 mps 760 mmHg 81%
    06:00 +5°C° 0 mm 1 mps 760 mmHg 82%
    07:00 +5°C° 0 mm 1 mps 760 mmHg 82%
    08:00 +5°C° 0 mm 1 mps 760 mmHg 83%
    09:00 +6°C° 0 mm 1 mps 760 mmHg 78%
    10:00 +7°C° 0 mm 1 mps 760 mmHg 72%
    11:00 +9°C° 0 mm 1 mps 761 mmHg 67%
    12:00 +9°C° 0 mm 1 mps 760 mmHg 65%
    13:00 +10°C° 0 mm 1 mps 760 mmHg 62%
    14:00 +11°C° 0 mm 1 mps 759 mmHg 60%
    15:00 +10°C° 0 mm 1 mps 759 mmHg 62%
    16:00 +9°C° 0 mm 1 mps 759 mmHg 63%
    17:00 +9°C° 0 mm 1 mps 759 mmHg 65%
    18:00 +8°C° 0 mm 1 mps 759 mmHg 67%
    19:00 +7°C° 0 mm 1 mps 759 mmHg 68%
    20:00 +7°C° 0 mm 1 mps 759 mmHg 69%
    21:00 +6°C° 0 mm 1 mps 759 mmHg 69%
    22:00 +6°C° 0 mm 1 mps 759 mmHg 70%
    23:00 +6°C° 0 mm 1 mps 759 mmHg 70%

    Day after tomorrow, 27 January, Monday

    Time Temperature Precipitation Wind Pressure Humidity
    00:00 +6°C° 0 mm 1 mps 759 mmHg 71%
    01:00 +5°C° 0 mm 1 mps 759 mmHg 72%
    02:00 +4°C° 0 mm 0 mps 758 mmHg 73%
    03:00 +4°C° 0 mm 0 mps 758 mmHg 72%
    04:00 +4°C° 0 mm 0 mps 758 mmHg 71%
    05:00 +4°C° 0 mm 0 mps 758 mmHg 70%
    06:00 +4°C° 0 mm 0 mps 758 mmHg 70%
    07:00 +4°C° 0 mm 0 mps 757 mmHg 71%
    08:00 +4°C° 0 mm 0 mps 757 mmHg 71%
    09:00 +4°C° 0.1 mm 0 mps 757 mmHg 73%
    10:00 +5°C° 0.1 mm 0 mps 757 mmHg 75%
    11:00 +5°C° 0.1 mm 0 mps 757 mmHg 77%
    12:00 +5°C° 0.1 mm 0 mps 757 mmHg 79%
    13:00 +5°C° 0.1 mm 0 mps 757 mmHg 81%
    14:00 +5°C° 0.1 mm 0 mps 756 mmHg 83%
    15:00 +5°C° 0 mm 0 mps 756 mmHg 84%
    16:00 +5°C° 0 mm 0 mps 756 mmHg 84%
    17:00 +5°C° 0 mm 0 mps 756 mmHg 85%
    18:00 +5°C° 0 mm 0 mps 756 mmHg 86%
    19:00 +5°C° 0 mm 0 mps 756 mmHg 87%
    20:00 +4°C° 0 mm 0 mps 756 mmHg 88%
    21:00 +5°C° 0 mm 1 mps 756 mmHg 89%
    22:00 +5°C° 0 mm 1 mps 756 mmHg 90%
    23:00 +4°C° 0 mm 1 mps 756 mmHg 91%

    28 January, Tuesday

    Time Temperature Precipitation Wind Pressure Humidity
    00:00 +4°C° 0 mm 1 mps 755 mmHg 91%
    01:00 +4°C° 0 mm 1 mps 755 mmHg 91%
    02:00 +4°C° 0 mm 1 mps 755 mmHg 91%
    03:00 +4°C° 0 mm 1 mps 754 mmHg 91%
    04:00 +2°C° 0 mm 0 mps 754 mmHg 91%
    05:00 +2°C° 0 mm 0 mps 754 mmHg 91%
    06:00 +2°C° 0 mm 0 mps 753 mmHg 91%
    07:00 +2°C° 0 mm 0 mps 753 mmHg 91%
    08:00 +2°C° 0 mm 0 mps 753 mmHg 91%
    09:00 +4°C° 0 mm 0 mps 753 mmHg 85%
    10:00 +5°C° 0 mm 0 mps 752 mmHg 79%
    11:00 +7°C° 0 mm 0 mps 752 mmHg 73%
    12:00 +8°C° 0 mm 0 mps 752 mmHg 71%
    13:00 +9°C° 0 mm 1 mps 751 mmHg 69%
    14:00 +10°C° 0 mm 1 mps 751 mmHg 67%
    15:00 +9°C° 0 mm 1 mps 751 mmHg 70%
    16:00 +9°C° 0 mm 1 mps 751 mmHg 73%
    17:00 +7°C° 0 mm 0 mps 750 mmHg 77%
    18:00 +7°C° 0 mm 0 mps 750 mmHg 79%
    19:00 +6°C° 0 mm 0 mps 751 mmHg 81%
    20:00 +5°C° 0 mm 0 mps 751 mmHg 84%
    21:00 +5°C° 0 mm 0 mps 750 mmHg 84%
    22:00 +5°C° 0 mm 0 mps 750 mmHg 85%
    23:00 +5°C° 0 mm 0 mps 750 mmHg 85%

    29 January, Wednesday

    Time Temperature Precipitation Wind Pressure Humidity
    00:00 +5°C° 0.1 mm 0 mps 750 mmHg 85%
    01:00 +5°C° 0.1 mm 0 mps 749 mmHg 85%
    02:00 +6°C° 0.1 mm 1 mps 749 mmHg 85%
    03:00 +7°C° 0.2 mm 1 mps 749 mmHg 86%
    04:00 +6°C° 0.2 mm 2 mps 749 mmHg 86%
    05:00 +5°C° 0.2 mm 3 mps 749 mmHg 86%
    06:00 +7°C° 0.8 mm 3 mps 749 mmHg 89%
    07:00 +7°C° 0.8 mm 3 mps 749 mmHg 91%
    08:00 +7°C° 0.8 mm 3 mps 749 mmHg 93%
    09:00 +7°C° 0.1 mm 3 mps 749 mmHg 88%
    10:00 +8°C° 0.1 mm 3 mps 749 mmHg 84%
    11:00 +7°C° 0.1 mm 4 mps 750 mmHg 80%
    12:00 +8°C° 0 mm 4 mps 749 mmHg 73%
    13:00 +10°C° 0 mm 4 mps 749 mmHg 67%
    14:00 +10°C° 0 mm 4 mps 749 mmHg 61%
    15:00 +10°C° 0.2 mm 3 mps 749 mmHg 66%
    16:00 +10°C° 0.2 mm 3 mps 749 mmHg 70%
    17:00 +9°C° 0.2 mm 2 mps 749 mmHg 74%
    18:00 +8°C° 0.2 mm 2 mps 749 mmHg 78%
    19:00 +8°C° 0.2 mm 2 mps 750 mmHg 82%
    20:00 +7°C° 0.2 mm 3 mps 750 mmHg 85%
    21:00 +5°C° 0 mm 3 mps 751 mmHg 82%
    22:00 +5°C° 0 mm 4 mps 752 mmHg 79%
    23:00 +4°C° 0 mm 4 mps 752 mmHg 76%

    30 January, Thursday

    Time Temperature Precipitation Wind Pressure Humidity
    00:00 +4°C° 0 mm 4 mps 753 mmHg 74%
    01:00 +3°C° 0 mm 4 mps 753 mmHg 73%
    02:00 +3°C° 0 mm 4 mps 753 mmHg 72%
    03:00 +1°C° 0 mm 4 mps 753 mmHg 74%
    04:00 +1°C° 0 mm 4 mps 754 mmHg 77%
    05:00 +1°C° 0 mm 4 mps 754 mmHg 79%
    06:00 +2°C° 0 mm 3 mps 754 mmHg 79%
    07:00 +1°C° 0 mm 3 mps 754 mmHg 79%
    08:00 +1°C° 0 mm 3 mps 755 mmHg 79%
    09:00 +2°C° 0 mm 3 mps 755 mmHg 69%
    10:00 +4°C° 0 mm 3 mps 755 mmHg 59%
    11:00 +5°C° 0 mm 4 mps 756 mmHg 49%
    12:00 +6°C° 0 mm 5 mps 756 mmHg 49%
    13:00 +5°C° 0 mm 6 mps 756 mmHg 49%
    14:00 +5°C° 0 mm 7 mps 756 mmHg 48%
    15:00 +5°C° 0 mm 6 mps 756 mmHg 53%
    16:00 +4°C° 0 mm 6 mps 757 mmHg 57%
    17:00 +3°C° 0 mm 5 mps 757 mmHg 61%
    18:00 +2°C° 0 mm 5 mps 758 mmHg 65%
    19:00 +3°C° 0 mm 4 mps 758 mmHg 69%
    20:00 +1°C° 0 mm 4 mps 759 mmHg 73%
    21:00 +1°C° 0 mm 4 mps 759 mmHg 74%
    22:00 +1°C° 0 mm 3 mps 759 mmHg 76%
    23:00 +1°C° 0 mm 3 mps 759 mmHg 77%
    Show more